Weather History for KMFV - November, 2012

Change the Weather History Date:

Sunday, November 18, 2012

  Actual Average (KWAL) Record (KWAL)
Temperature  
Mean Temperature 52 °F 49 °F  
Max Temperature 59 °F 58 °F 73 °F (1978)
Min Temperature 46 °F 40 °F 25 °F (2014)
Degree Days  
Heating Degree Days 12    
Month to date heating degree days  
Since 1 July heating degree days  
Cooling Degree Days 0    
Month to date cooling degree days  
Year to date cooling degree days  
Growing Degree Days 2 (Base 50)    
Moisture  
Dew Point 45 °F    
Average Humidity 74    
Maximum Humidity 87    
Minimum Humidity 59    
Precipitation  
Precipitation 0.00 in 0.10 in 0.12 in (2013)
Month to date precipitation 1.70  
Year to date precipitation 36.24  
Sea Level Pressure  
Sea Level Pressure 30.46 in    
Wind  
Wind Speed 13 mph (NE)    
Max Wind Speed 26 mph    
Max Gust Speed 34 mph    
Visibility 10 miles    
Events      
T = Trace of Precipitation, MM = Missing Value Source: NWS Daily Summary

Daily Weather History Graph

Daily Weather History Graph

Search for Another Location

Airport or City:

Trip Planner

Search our weather history database for the weather conditions in past years. The results will help you decide how hot, cold, wet, or windy it might be!

Date:

Astronomy

Nov. 18, 2012 Rise Set
Actual Time 6:46 AM EST 4:49 PM EST
Civil Twilight 6:18 AM EST 5:17 PM EST
Nautical Twilight 5:46 AM EST 5:49 PM EST
Astronomical Twilight 5:15 AM EST 6:20 PM EST
Moon 11:13 AM EST (11/18) 10:05 PM EST (11/18)
Length of Visible Light 10h 59m
Length of Day
10h 03m
Waxing Crescent, 30% of the Moon is Illuminated
Nov 18
Waxing Crescent
Nov 20
First Quarter
Nov 28
Full
Dec 6
Last Quarter
Dec 13
New

Hourly Weather History & Observations

Time (EST) Temp. Windchill Dew Point Humidity Pressure Visibility Wind Dir Wind Speed Gust Speed Precip Events Conditions
12:15 AM 48.2 °F - 42.8 °F 82% 30.51 in 10.0 mi NNE 8.1 mph - N/A   Mostly Cloudy
12:35 AM 48.2 °F - 44.6 °F 87% 30.50 in 10.0 mi NNE 8.1 mph - N/A   Mostly Cloudy
12:58 AM 48.2 °F - 42.8 °F 82% 30.50 in 10.0 mi NNE 9.2 mph - N/A   Mostly Cloudy
1:15 AM 48.2 °F - 42.8 °F 82% 30.49 in 10.0 mi NNE 9.2 mph - N/A   Scattered Clouds
1:35 AM 46.4 °F 41.9 °F 42.8 °F 87% 30.49 in 10.0 mi NNE 9.2 mph - N/A   Clear
1:55 AM 46.4 °F 42.9 °F 42.8 °F 87% 30.49 in 10.0 mi NNE 6.9 mph - N/A   Clear
2:15 AM 48.2 °F - 42.8 °F 82% 30.49 in 10.0 mi NNE 8.1 mph - N/A   Clear
2:35 AM 48.2 °F - 42.8 °F 82% 30.49 in 10.0 mi NE 11.5 mph - N/A   Clear
2:56 AM 48.2 °F - 42.8 °F 82% 30.49 in 10.0 mi NNE 10.4 mph 17.3 mph N/A   Unknown
3:15 AM 48.2 °F - 42.8 °F 82% 30.49 in 10.0 mi NNE 9.2 mph 18.4 mph N/A   Clear
3:36 AM 48.2 °F - 42.8 °F 82% 30.49 in 10.0 mi NNE 8.1 mph - N/A   Clear
3:55 AM 48.2 °F - 42.8 °F 82% 30.48 in 10.0 mi NE 10.4 mph 16.1 mph N/A   Clear
4:15 AM 48.2 °F - 42.8 °F 82% 30.48 in 10.0 mi NNE 11.5 mph 17.3 mph N/A   Clear
4:35 AM 48.2 °F - 42.8 °F 82% 30.48 in 10.0 mi NE 10.4 mph 18.4 mph N/A   Clear
4:55 AM 50.0 °F - 42.8 °F 76% 30.48 in 10.0 mi NE 12.7 mph 20.7 mph N/A   Clear
5:15 AM 50.0 °F - 42.8 °F 76% 30.48 in 10.0 mi NE 12.7 mph 21.9 mph N/A   Clear
5:35 AM 50.0 °F - 44.6 °F 82% 30.48 in 10.0 mi NE 12.7 mph 19.6 mph N/A   Clear
6:15 AM 50.0 °F - 44.6 °F 82% 30.49 in 10.0 mi NE 12.7 mph 17.3 mph N/A   Clear
6:35 AM 50.0 °F - 44.6 °F 82% 30.50 in 10.0 mi NE 11.5 mph 16.1 mph N/A   Clear
6:55 AM 50.0 °F - 44.6 °F 82% 30.50 in 10.0 mi NE 13.8 mph - N/A   Clear
7:15 AM 50.0 °F - 44.6 °F 82% 30.50 in 10.0 mi NE 11.5 mph 17.3 mph N/A   Clear
7:35 AM 50.0 °F - 44.6 °F 82% 30.50 in 10.0 mi NE 10.4 mph 18.4 mph N/A   Clear
7:55 AM 51.8 °F - 44.6 °F 76% 30.50 in 10.0 mi NE 12.7 mph 19.6 mph N/A   Clear
8:15 AM 51.8 °F - 44.6 °F 76% 30.50 in 10.0 mi NE 13.8 mph 23.0 mph N/A   Clear
8:35 AM 53.6 °F - 44.6 °F 72% 30.50 in 10.0 mi NE 11.5 mph 23.0 mph N/A   Clear
8:56 AM 53.6 °F - 44.6 °F 72% 30.50 in 10.0 mi ENE 19.6 mph 28.8 mph N/A   Clear
9:15 AM 55.4 °F - 44.6 °F 67% 30.49 in 10.0 mi NE 19.6 mph 27.6 mph N/A   Clear
9:35 AM 55.4 °F - 44.6 °F 67% 30.50 in 10.0 mi ENE 20.7 mph 29.9 mph N/A   Clear
9:55 AM 55.4 °F - 44.6 °F 67% 30.50 in 10.0 mi ENE 23.0 mph 31.1 mph N/A   Clear
10:15 AM 57.2 °F - 44.6 °F 63% 30.49 in 10.0 mi NE 19.6 mph 29.9 mph N/A   Clear
10:35 AM 57.2 °F - 44.6 °F 63% 30.49 in 10.0 mi NE 16.1 mph 29.9 mph N/A   Clear
10:55 AM 57.2 °F - 44.6 °F 63% 30.49 in 10.0 mi ENE 19.6 mph 31.1 mph N/A   Clear
11:15 AM 57.2 °F - 44.6 °F 63% 30.49 in 10.0 mi NE 18.4 mph 32.2 mph N/A   Clear
11:36 AM 57.2 °F - 44.6 °F 63% 30.48 in 10.0 mi NE 21.9 mph 27.6 mph N/A   Clear
11:55 AM 57.2 °F - 44.6 °F 63% 30.47 in 10.0 mi NE 17.3 mph 27.6 mph N/A   Clear
12:15 PM 57.2 °F - 44.6 °F 63% 30.46 in 10.0 mi ENE 23.0 mph 27.6 mph N/A   Clear
12:35 PM 57.2 °F - 44.6 °F 63% 30.46 in 10.0 mi NE 20.7 mph 29.9 mph N/A   Clear
12:55 PM 57.2 °F - 44.6 °F 63% 30.46 in 10.0 mi NE 20.7 mph 29.9 mph N/A   Clear
1:15 PM 57.2 °F - 44.6 °F 63% 30.45 in 10.0 mi ENE 19.6 mph 27.6 mph N/A   Clear
1:36 PM 57.2 °F - 44.6 °F 63% 30.45 in 10.0 mi NE 26.5 mph 34.5 mph N/A   Clear
1:55 PM 59.0 °F - 44.6 °F 59% 30.45 in 10.0 mi ENE 21.9 mph 25.3 mph N/A   Clear
2:15 PM 57.2 °F - 44.6 °F 63% 30.44 in 10.0 mi NE 20.7 mph 28.8 mph N/A   Clear
2:36 PM 57.2 °F - 46.4 °F 67% 30.44 in 10.0 mi NE 16.1 mph 32.2 mph N/A   Clear
2:55 PM 57.2 °F - 46.4 °F 67% 30.44 in 10.0 mi NE 20.7 mph 28.8 mph N/A   Clear
3:16 PM 57.2 °F - 46.4 °F 67% 30.44 in 10.0 mi ENE 21.9 mph 33.4 mph N/A   Clear
3:35 PM 55.4 °F - 46.4 °F 72% 30.45 in 10.0 mi NE 16.1 mph 27.6 mph N/A   Scattered Clouds
3:56 PM 55.4 °F - 44.6 °F 67% 30.44 in 10.0 mi NE 17.3 mph 28.8 mph N/A   Mostly Cloudy
4:15 PM 55.4 °F - 44.6 °F 67% 30.44 in 10.0 mi NE 23.0 mph 27.6 mph N/A   Clear
4:35 PM 55.4 °F - 44.6 °F 67% 30.44 in 10.0 mi NE 17.3 mph 25.3 mph N/A   Mostly Cloudy
4:55 PM 55.4 °F - 44.6 °F 67% 30.44 in 10.0 mi NE 16.1 mph 24.2 mph N/A   Overcast
5:15 PM 55.4 °F - 44.6 °F 67% 30.44 in 10.0 mi NE 18.4 mph 24.2 mph N/A   Overcast
5:36 PM 53.6 °F - 44.6 °F 72% 30.44 in 10.0 mi NE 13.8 mph 26.5 mph N/A   Overcast
5:55 PM 53.6 °F - 44.6 °F 72% 30.44 in 10.0 mi NE 18.4 mph 29.9 mph N/A   Overcast
6:15 PM 53.6 °F - 44.6 °F 72% 30.44 in 10.0 mi NE 15.0 mph 25.3 mph N/A   Mostly Cloudy
6:35 PM 53.6 °F - 44.6 °F 72% 30.44 in 10.0 mi NE 16.1 mph 26.5 mph N/A   Scattered Clouds
6:55 PM 53.6 °F - 46.4 °F 77% 30.44 in 10.0 mi NE 17.3 mph 24.2 mph N/A   Scattered Clouds
7:15 PM 53.6 °F - 44.6 °F 72% 30.44 in 10.0 mi NE 15.0 mph 21.9 mph N/A   Clear
7:35 PM 53.6 °F - 44.6 °F 72% 30.43 in 10.0 mi NE 13.8 mph 24.2 mph N/A   Clear
7:55 PM 53.6 °F - 46.4 °F 77% 30.43 in 10.0 mi NE 12.7 mph 24.2 mph N/A   Clear
8:15 PM 53.6 °F - 46.4 °F 77% 30.43 in 10.0 mi NE 16.1 mph 26.5 mph N/A   Clear
8:35 PM 53.6 °F - 46.4 °F 77% 30.43 in 10.0 mi NE 15.0 mph 24.2 mph N/A   Clear
8:55 PM 53.6 °F - 46.4 °F 77% 30.42 in 10.0 mi NE 17.3 mph 24.2 mph N/A   Clear
9:15 PM 53.6 °F - 46.4 °F 77% 30.42 in 10.0 mi NE 11.5 mph 23.0 mph N/A   Scattered Clouds
9:36 PM 53.6 °F - 46.4 °F 77% 30.42 in 10.0 mi NE 12.7 mph 19.6 mph N/A   Scattered Clouds
9:55 PM 53.6 °F - 46.4 °F 77% 30.41 in 10.0 mi NNE 10.4 mph 16.1 mph N/A   Clear
10:15 PM 53.6 °F - 46.4 °F 77% 30.42 in 10.0 mi NNE 9.2 mph 18.4 mph N/A   Scattered Clouds
10:35 PM 53.6 °F - 46.4 °F 77% 30.41 in 10.0 mi NNE 13.8 mph 21.9 mph N/A   Overcast
10:55 PM 53.6 °F - 46.4 °F 77% 30.41 in 10.0 mi NE 12.7 mph 20.7 mph N/A   Overcast
11:15 PM 55.4 °F - 46.4 °F 72% 30.39 in 10.0 mi NE 16.1 mph 24.2 mph N/A   Overcast
11:35 PM 55.4 °F - 46.4 °F 72% 30.39 in 10.0 mi NE 17.3 mph 21.9 mph N/A   Overcast
11:55 PM 55.4 °F - 46.4 °F 72% 30.38 in 10.0 mi NE 16.1 mph 24.2 mph N/A   Overcast